TimePDT,TemperatureF,Dew PointF,Humidity,Sea Level PressureIn,VisibilityMPH,Wind Direction,Wind SpeedMPH,Gust SpeedMPH,PrecipitationIn,Events,Conditions,WindDirDegrees,DateUTC
12:56 AM,28.9,27.0,92,30.14,10.0,Calm,Calm,-,N/A,,Clear,0,2013-03-31 07:56:00
1:56 AM,28.9,27.0,92,30.12,10.0,Calm,Calm,-,N/A,,Clear,0,2013-03-31 08:56:00
2:56 AM,28.0,26.1,92,30.10,10.0,Calm,Calm,-,N/A,,Clear,0,2013-03-31 09:56:00
3:56 AM,28.0,25.0,88,30.09,10.0,Calm,Calm,-,N/A,,Clear,0,2013-03-31 10:56:00
4:56 AM,27.0,24.1,89,30.08,10.0,Calm,Calm,-,N/A,,Clear,0,2013-03-31 11:56:00
5:56 AM,26.1,24.1,92,30.08,10.0,Calm,Calm,-,N/A,,Clear,0,2013-03-31 12:56:00
6:56 AM,26.1,23.0,88,30.10,10.0,Calm,Calm,-,N/A,,Clear,0,2013-03-31 13:56:00
7:56 AM,28.9,27.0,92,30.10,10.0,Calm,Calm,-,N/A,,Clear,0,2013-03-31 14:56:00
8:56 AM,39.0,33.1,79,30.09,10.0,Calm,Calm,-,N/A,,Clear,0,2013-03-31 15:56:00
9:56 AM,52.0,37.0,57,30.06,10.0,Calm,Calm,-,N/A,,Clear,0,2013-03-31 16:56:00
10:56 AM,57.9,33.1,39,30.06,10.0,Calm,Calm,-,N/A,,Clear,0,2013-03-31 17:56:00
11:56 AM,61.0,35.1,38,30.05,10.0,ENE,6.9,-,N/A,,Clear,70,2013-03-31 18:56:00
12:56 PM,62.1,37.0,39,30.04,10.0,Variable,3.5,-,N/A,,Clear,0,2013-03-31 19:56:00
1:56 PM,61.0,37.0,41,30.02,10.0,Variable,4.6,-,N/A,,Clear,0,2013-03-31 20:56:00
2:56 PM,62.1,37.9,41,30.01,10.0,Variable,4.6,-,N/A,,Clear,0,2013-03-31 21:56:00
3:56 PM,61.0,39.9,46,29.99,10.0,Variable,4.6,-,N/A,,Clear,0,2013-03-31 22:56:00
4:56 PM,60.1,37.9,44,29.99,10.0,Calm,Calm,-,N/A,,Clear,0,2013-03-31 23:56:00
5:56 PM,57.9,32.0,37,29.99,10.0,Variable,4.6,-,N/A,,Clear,0,2013-04-01 00:56:00
6:56 PM,52.0,32.0,47,30.00,10.0,Calm,Calm,-,N/A,,Clear,0,2013-04-01 01:56:00
7:56 PM,44.1,34.0,68,30.00,10.0,Calm,Calm,-,N/A,,Clear,0,2013-04-01 02:56:00
8:56 PM,39.0,33.1,79,30.00,10.0,Calm,Calm,-,N/A,,Clear,0,2013-04-01 03:56:00
9:56 PM,36.0,30.9,82,29.99,10.0,Calm,Calm,-,N/A,,Clear,0,2013-04-01 04:56:00
10:56 PM,33.1,30.0,89,29.98,10.0,Calm,Calm,-,N/A,,Clear,0,2013-04-01 05:56:00
11:56 PM,30.9,28.0,89,29.97,10.0,Calm,Calm,-,N/A,,Clear,0,2013-04-01 06:56:00